Regional Weather Roundup
Issued by NWS

Home | Current Version | Previous Version | Text Only | Print | Product List | Glossary On
Versions: 1 2 3 4 5 6 7 8 9 10 11 12 13 14 15 16 17 18 19 20 21 22 23 24 25 26 27 28 29 30 31 32 33 34 35 36 37 38 39 40 41 42 43 44 45 46 47 48 49 50
000
ASHW40 PHFO 250512
RWRHI

WEATHER ROUNDUP FOR HAWAII
NATIONAL WEATHER SERVICE HONOLULU HI
700 PM HST WED MAY 24 2017

THIS IS AN AUTOMATED REPORT THAT HAS NOT BEEN QUALITY CONTROLLED.

NOTE..."FAIR" INDICATES FEW OR NO CLOUDS BELOW 12,000 FEET WITH NO
SIGNIFICANT WEATHER AND/OR OBSTRUCTIONS TO VISIBILITY.

* - THESE SITES REPORT LIMITED FIELDS

HIZ001>004-250600-
KAUAI-NIIHAU-

CITY           SKY/WX    TMP DP  RH WIND       PRES   REMARKS
LIHUE APT      CLOUDY    74  69  85 N15       30.06R
PORT ALLEN*      N/A     77 N/A N/A NE8         N/A
POIPU*           N/A     77 N/A N/A NE7G16      N/A
PRINCEVILLE*     N/A     72 N/A N/A NE6         N/A
KOKOLE POINT*  NOT AVBL
MOLOAA DAIRY*    N/A     72  68  88 NE3G12      N/A
WAIMEA HTS*    NOT AVBL
PUU OPAE*      NOT AVBL
PUU LUA*       NOT AVBL
MAKAHA RIDGE*  NOT AVBL
$$

HIZ005>011-250600-
OAHU-

CITY           SKY/WX    TMP DP  RH WIND       PRES   REMARKS
HONOLULU       PTCLDY    78  63  59 NE10      30.02R
KALAELOA       MOCLDY    79  65  62 NE7       30.03R
KANEOHE MCB    NOT AVBL
WHEELER FIELD  CLOUDY    72  65  78 CALM      30.04S
BELLOWS*       NOT AVBL
KAHUKU*        NOT AVBL
WHEELER*       NOT AVBL
WAIANAE HARBOR NOT AVBL
DILLINGHAM*      N/A     75  64  69 SW5G17      N/A
KAHUKU TRN*      N/A     73  68  83 W12G21      N/A
KAWAILOA*        N/A     70  64  83 NE9G18      N/A
KII*             N/A     75  68  78 NE18        N/A
MAKUA RANGE*     N/A     86  72  62 SW7G18      N/A  HX  92
OAHU FOREST NW NOT AVBL
SCHOFIELD BRK*   N/A     79  70  73 MISG        N/A
SCHOFIELD S*   NOT AVBL
WAIANAE VLY*   NOT AVBL
KUAOKALA*      NOT AVBL
HONOULIUULI*   NOT AVBL
MOKUOLOE IS*   NOT AVBL
PALEHUA*       NOT AVBL
WAIAWA PHB*    NOT AVBL
$$

HIZ012>013-250600-
MOLOKAI-

CITY           SKY/WX    TMP DP  RH WIND       PRES   REMARKS
MOLOKAI AIRPT  PTCLDY    75  68  78 N10G24    30.04R
KALAUPAPA      NOT AVBL
MAKAPULAPAI*   NOT AVBL
MOLOKAI 1*     NOT AVBL
PUU ALII*      NOT AVBL
$$

HIZ016-250600-
KAHOOLAWE-

CITY           SKY/WX    TMP DP  RH WIND       PRES   REMARKS
KAHOOLAWE*     NOT AVBL
HAKIOAWA*      NOT AVBL
HONOKANAIA*      N/A     79  63  57 NE12G26   29.94R
KANELOA*         N/A     73  63  68 E12G24    30.08R
KEALIALALO*    NOT AVBL
LUA MAKIKA*    NOT AVBL
$$

HIZ014>015-250600-
LANAI-

CITY           SKY/WX    TMP DP  RH WIND       PRES   REMARKS
LANAI CITY     FAIR      71  63  75 NE15G23   30.07R
LANAI 1*       NOT AVBL
$$

HIZ017>028-250600-
MAUI-

CITY           SKY/WX    TMP DP  RH WIND       PRES   REMARKS
KAHULUI        PTCLDY    77  64  64 NE18      30.01R
KAPALUA-W MAUI NOT AVBL
HANA AIRPORT   PTCLDY    73  66  78 CALM      30.07S
HANA*            N/A     77 N/A N/A NE5         N/A
HALEAKALA SUMM   N/A     48   3  15 NE10        N/A
MAALAEA BAY*   NOT AVBL
HALEAKALA*     NOT AVBL
KAUPO GAP*     NOT AVBL
KULA 1*          N/A     55  55  99 W2          N/A
$$

HIZ023>026-250600-
BIG ISLAND OF HAWAII COAST AND LOWER SLOPES-

CITY           SKY/WX    TMP DP  RH WIND       PRES   REMARKS
KAILUA KONA    PTCLDY    80  66  62 S10       29.98R
HILO           MOCLDY    76  66  71 E5        30.02R
HONOKAA*         N/A     70 N/A N/A VRB1        N/A
KAWAIHAE MWT*    N/A     81 N/A N/A W9          N/A
KAWAIHAE*      NOT AVBL
SOUTH POINT*     N/A     72 N/A N/A N14G20      N/A
UPOLU AIRPORT* NOT AVBL
KAMUELA*       NOT AVBL
HAKALAU*         N/A     50  48  93 SW2         N/A
KALOKO-HONOKO* NOT AVBL
PALI 2*          N/A     64  57  77 S12G22      N/A
KEALAKOMO*       N/A     79  63  57 NE14G25     N/A
KAUPULEHU*     NOT AVBL
KAPAPALA*        N/A     68  66  94 W2G12       N/A
LOWER KAHUKU*  NOT AVBL
PUHE CS*       NOT AVBL
PUHO CS*       NOT AVBL
PTA KEAMUKU*     N/A     63  55  77 CALM        N/A
WAIKOLOA*      NOT AVBL
$$

HIZ027>028-250600-
BIG ISLAND OF HAWAII INTERIOR AND SUMMMITS-

CITY           SKY/WX    TMP DP  RH WIND       PRES   REMARKS
BRADSHAW FIELD CLOUDY    57  52  82 W5        30.31R
MK VISITOR CEN   N/A     46  28  49 NE3         N/A
MAUNA KEA*       N/A     37   1  22 CALM        N/A
MAUNA LOA*     NOT AVBL
MAUNA LOA 1*   NOT AVBL
PTA KIPUKA*      N/A     63  54  72 NW3         N/A
PTA RANGE 17*    N/A     59  48  67 W6G15       N/A
PTA WEST*        N/A     63  52  67 W6G12       N/A
NENE CABIN*    NOT AVBL
AHUMOA*        NOT AVBL
PTA PORTABLE*  NOT AVBL
PUU MALI*        N/A     54  45  71 S2G14       N/A
$$

HIC003-250600-
NORTHWEST ISLANDS-

CITY           SKY/WX    TMP DP  RH WIND       PRES   REMARKS
MIDWAY ISLAND  CLOUDY    72  61  68 E23       30.27S
MIDWAY NOS*    NOT AVBL
FRENCH FRIGATE NOT AVBL
$$

PHZ110>124-180-250600-
BUOY REPORTS

STATION/POSITION TIME  TEMP    WIND        PRES    WAVE   SWELL
                       AIR SEA DIR/SP/G            HT/PER HT/DIR
                 (UTC) (F)     (DEG/KT/KT) (MB)    (FT/S) (FT/D)
BUOY 51001       0450   75 77   60/ 17/ 21 1019.1R   9/ 8   3/130
BUOY 51101       0450   75 77   60/ 19/ 21 1019.4R   8/ 8   3/150
BUOY 51100       NOT AVBL
BUOY 51002       0450   78 78   70/ 16/ 19 1014.6R   7/ 7   5/ 60
BUOY 51003       0450   78 80   70/ 12/ 14 1015.5R   7/ 9   7/ 30
BUOY 51004       0450      78   60/ 14/ 16 1014.9R   6/11   5/290
BARBERS PT BUOY  NOT AVBL
WAIMEA BAY BUOY  0402      78                N/A     6/ 8   2/310
KAILUA BAY BUOY  0434      79                N/A     7/ 8   2/360
LANAI BUOY       NOT AVBL
BARBERS PT 2     NOT AVBL
PAUWELA MAUI     0439      78                N/A     8/11   3/350
HILO             0412      79                N/A     6/11   2/340
KANEOHE BAY BUOY 0455      79                N/A     7/ 8   2/ 10
HANALEI KAUAI    0452      79                N/A     7/ 8   2/340
KAHULUI HARBOR   0448   77 79   40/ 14/ 21 1016.7R
HONOLULU HARBOR  0448   77 80   50/  5/  7 1017.5R
KILO NALU        NOT AVBL
HILO HARBOR      0448   77 78   40/  5/  8 1016.3R
MOKUOLOE         0436   75 81   40/ 14/ 18 1017.2R
NAWILIWILI       0448   75      30/  9/ 12 1017.3R
WHOTS BUOY       NOT AVBL
BUOY 51028       NOT AVBL
$$

......................KEY........................................
  SKY/WX - SKY CONDITIONS/PRESENT WEATHER
  TMP    - TEMPERATURE IN FAHRENHEIT
  DWPT   - DEWPOINT IN FAHRENHEIT
  RH     - RELATIVE HUMIDITY IN PERCENT
  WIND   - DIRECTION AND SPEED /MPH FOR ISLANDS...KTS FOR BUOYS/
  PRES   - MEAN SEA LEVEL PRESSURE IN INCHES OF HG
  VSB    - VISIBILITY IN MILES
  HX     - HEAT INDEX
  WCI    - WIND CHILL INDEX
  VRB    - VARIABLE WIND DIRECTION
  N/A    - NOT AVAILABLE




USA.gov is the U.S. government's official web portal to all federal, state and local government web resources and services.